Overview Statistics Trail Chart Weather Telemetry Raw packets
 

This is the latest recevied weather packets stored in our database for station/object IONIA-WX. If no packets are shown the sender has not sent any weather packets the latest 10 day(s).

<< 1 2 3 4 5 6 7 >>
Time Temp. Humidity Pressure Rain* Wind** Luminosity Snow
1788570017 22.22° C 84% 983.6 hPa 0 mm - - -
1788569117 22.78° C 81% 983.2 hPa 0 mm - - -
1788568224 23.33° C 79% 983.7 hPa 0 mm - - -
1788567317 23.33° C 79% 983.7 hPa 0 mm - - -
1788566421 23.89° C 79% 983.7 hPa 0 mm - - -
1788565517 24.44° C 73% 984.1 hPa 0 mm - - -
1788564617 25° C 71% 984.2 hPa 0 mm - - -
1788563717 25° C 71% 984.1 hPa 0 mm - - -
1788562818 25° C 71% 984.1 hPa 0 mm - - -
1788561917 25.56° C 72% 983.5 hPa 0 mm - - -
1788561017 25.56° C 70% 984.5 hPa 0 mm - - -
1788560117 25.56° C 70% 984.5 hPa 0 mm - - -
1788559222 25.56° C 70% 984.5 hPa 0 mm - - -
1788558324 26.11° C 72% 983.9 hPa 0 mm - - -
1788557423 25.56° C 73% 984 hPa 0 mm - - -
1788556524 25.56° C 73% 984 hPa 0 mm - - -
1788555623 25.56° C 73% 984 hPa 0 mm - - -
1788554722 25.56° C 83% 984 hPa 0 mm - - -
1788553822 25° C 83% 984.2 hPa 0 mm - - -
1788552916 25° C 83% 984.2 hPa 0 mm - - -
1788552021 25° C 75% 984.3 hPa 0 mm - - -
1788551124 25° C 80% 984.3 hPa 0 mm - - -
1788550223 24.44° C 80% 984.3 hPa 0 mm - - -
1788549323 24.44° C 80% 984.3 hPa 0 mm - - -
1788548421 23.89° C 80% 984.3 hPa 0 mm - - -

* Rain latest hour (hover to see other rain measurements)
** Current wind speed in m/s (hover to see current wind gust speed)